Find Qianfan Jigui 03-17

NORAD ID: 62254 Int'l Des: 2024-232 Owner: YUANX Country: CN Constellation: spacesail operational
LEOCIRCULARPOLAR

現在のビュー

3D地球を読み込み中...

Qianfan Jigui 03-17について

説明を読み込み中...

次回通過

Passes for default location (London). Set your location on the main map for personalized predictions.

高度履歴

Loading altitude history...

軌道要素

1 62254U 24232T 26151.16557735 .00000137 00000-0 19263-3 0 9991
2 62254 89.0097 24.1952 0016169 66.1664 294.1180 13.51010889 90784
Epoch: May 31, 2026 • Age: 8 hours

現在のステータス

高度 1071.1 km
速度 7.32 km/s
衛星直下点 40.09°N, 137.75°E
打ち上げ日 Dec 5, 2024
運用期間 1.4 years
タイプ internet

技術仕様

分類 Payload
質量 267.00 kg
乾燥質量 267.00 kg
総質量 267.00 kg
長さ 0.30 m
直径 3.00 m
スパン 10.00 m
形状 Box+pan
製造者 SECM
バスタイプ Qianfan
フェーズステータス In Orbit
所有者/国 YUANX/CN

Most Searched